Huntsville, AL

3:30 PM CST on February 22, 2017 (GMT -0600)
Huntsville International

Weather History for KHSV - February, 2012

Change the Weather History Date:

Friday, February 24, 2012

  Actual Average Record
Temperature  
Mean Temperature 53 °F 48 °F  
Max Temperature 70 °F 58 °F 77 °F (2000)
Min Temperature 36 °F 37 °F 14 °F (1967)
Degree Days  
Heating Degree Days 12 17  
Month to date heating degree days 412 460  
Since 1 July heating degree days 2069 2370  
Cooling Degree Days 0 0  
Month to date cooling degree days 1 0  
Year to date cooling degree days 1 0  
Growing Degree Days 4 (Base 50)    
Moisture  
Dew Point 36 °F    
Average Humidity 53    
Maximum Humidity 76    
Minimum Humidity 30    
Precipitation  
Precipitation T in 0.18 in 1.70 in (1979)
Month to date precipitation 3.36 3.95  
Year to date precipitation 11.15 8.84  
Snow  
Snow 0.00 in - - ()
Month to date snowfall T  
Since 1 July snowfall T  
Snow Depth 0.00 in    
Sea Level Pressure  
Sea Level Pressure 29.88 in    
Wind  
Wind Speed 14 mph (WNW)    
Max Wind Speed 29 mph    
Max Gust Speed 37 mph    
Visibility 10 miles    
Events      
T = Trace of Precipitation, MM = Missing Value Source: NWS Daily Summary

Daily Weather History Graph

Daily Weather History Graph

Search for Another Location

Airport or City:

Trip Planner

Search our weather history database for the weather conditions in past years. The results will help you decide how hot, cold, wet, or windy it might be!

Date:

Astronomy

Feb. 24, 2012 Rise Set
Actual Time 6:22 AM CST 5:38 PM CST
Civil Twilight 5:57 AM CST 6:03 PM CST
Nautical Twilight 5:28 AM CST 6:32 PM CST
Astronomical Twilight 4:59 AM CST 7:02 PM CST
Moon 7:26 AM CST (2/24) 8:30 PM CST (2/24)
Length of Visible Light 12h 06m
Length of Day
11h 15m
Waxing Crescent, 8% of the Moon is Illuminated
Feb 24
Waxing Crescent
Feb 29
First Quarter
Mar 8
Full
Mar 14
Last Quarter
Mar 22
New

Hourly Weather History & Observations

Time (CST) Temp. Windchill Dew Point Humidity Pressure Visibility Wind Dir Wind Speed Gust Speed Precip Events Conditions
12:53 AM 70.0 °F - 60.1 °F 71% 29.57 in 10.0 mi SW 15.0 mph 23.0 mph N/A   Overcast
1:53 AM 69.1 °F - 60.1 °F 73% 29.57 in 10.0 mi SW 13.8 mph 20.7 mph N/A   Overcast
2:53 AM 68.0 °F - 60.1 °F 76% 29.58 in 10.0 mi SW 15.0 mph - N/A   Overcast
3:53 AM 68.0 °F - 60.1 °F 76% 29.59 in 10.0 mi SW 11.5 mph - N/A   Overcast
4:14 AM 68.0 °F - 57.2 °F 68% 29.63 in 10.0 mi WNW 18.4 mph 25.3 mph N/A   Overcast
4:28 AM 64.4 °F - 48.2 °F 56% 29.64 in 10.0 mi WNW 12.7 mph - N/A   Overcast
4:53 AM 63.0 °F - 44.1 °F 50% 29.64 in 10.0 mi WNW 12.7 mph 20.7 mph N/A   Mostly Cloudy
5:53 AM 59.0 °F - 43.0 °F 55% 29.68 in 10.0 mi WNW 15.0 mph - N/A   Mostly Cloudy
6:53 AM 57.0 °F - 41.0 °F 55% 29.74 in 10.0 mi WNW 12.7 mph - N/A   Overcast
7:53 AM 55.9 °F - 30.0 °F 37% 29.79 in 10.0 mi NW 19.6 mph 27.6 mph N/A   Overcast
8:53 AM 54.0 °F - 26.1 °F 34% 29.83 in 10.0 mi NW 15.0 mph - N/A   Overcast
9:53 AM 54.0 °F - 28.9 °F 38% 29.86 in 10.0 mi NW 18.4 mph 24.2 mph N/A   Overcast
10:53 AM 52.0 °F - 28.9 °F 41% 29.89 in 10.0 mi WNW 17.3 mph 26.5 mph 0.00 in   Overcast
11:53 AM 54.0 °F - 25.0 °F 33% 29.91 in 10.0 mi WNW 19.6 mph 28.8 mph N/A   Mostly Cloudy
12:53 PM 55.0 °F - 25.0 °F 31% 29.91 in 10.0 mi WNW 23.0 mph 34.5 mph N/A   Mostly Cloudy
1:53 PM 54.0 °F - 26.1 °F 34% 29.94 in 10.0 mi WNW 17.3 mph 27.6 mph N/A   Mostly Cloudy
2:53 PM 54.0 °F - 24.1 °F 31% 29.98 in 10.0 mi NW 24.2 mph 33.4 mph N/A   Mostly Cloudy
3:53 PM 53.1 °F - 27.0 °F 37% 30.01 in 10.0 mi NW 20.7 mph 27.6 mph N/A   Mostly Cloudy
4:53 PM 51.1 °F - 26.1 °F 38% 30.04 in 10.0 mi NW 20.7 mph 28.8 mph N/A   Scattered Clouds
5:53 PM 46.9 °F - 25.0 °F 42% 30.07 in 10.0 mi NW 12.7 mph - N/A   Mostly Cloudy
6:53 PM 45.0 °F 40.6 °F 26.1 °F 48% 30.12 in 10.0 mi NW 8.1 mph - N/A   Partly Cloudy
7:53 PM 44.1 °F 39.0 °F 26.1 °F 49% 30.14 in 10.0 mi NW 9.2 mph - N/A   Partly Cloudy
8:53 PM 42.1 °F 38.4 °F 27.0 °F 55% 30.17 in 10.0 mi NNW 5.8 mph - N/A   Partly Cloudy
9:53 PM 41.0 °F 39.0 °F 25.0 °F 53% 30.19 in 10.0 mi NW 3.5 mph - N/A   Partly Cloudy
10:53 PM 39.0 °F 36.8 °F 26.1 °F 60% 30.20 in 10.0 mi NW 3.5 mph - N/A   Partly Cloudy
11:53 PM 37.0 °F - 27.0 °F 67% 30.21 in 10.0 mi Calm Calm - N/A   Partly Cloudy